K7RHT Weather Reports


time (UTC)temp
C
wind
direction
speed
KPH
gust
KPH
rain 1hr
cm
rain 24hr
cm
rain mn
cm
humidity
%
barometer
mb
20260506154546 20 18 6.4 20.9 0.08 0.20 0.20 87 1013.3
20260506153048 19 55 6.4 17.7 0.08 0.20 0.20 90 1013.2
20260506151548 18 352 8.0 19.3 0.08 0.20 0.20 93 1013.1
20260506150046 20 13 14.5 37.0 0.03 0.15 0.15 91 1013.0
20260506144544 21 0 0.0 3.2 0.03 0.13 0.13 94 1012.8
20260506143045 21 69 0.0 4.8 0.05 0.13 0.13 95 1012.7
20260506141550 21 0 0.0 3.2 0.08 0.13 0.13 94 1012.4
20260506140046 21 0 0.0 1.6 0.08 0.13 0.13 94 1012.3
20260506134545 21 0 0.0 3.2 0.08 0.10 0.10 94 1012.1
20260506133040 21 0 1.6 14.5 0.05 0.08 0.08 94 1011.5
20260506131552 21 148 4.8 11.3 0.03 0.05 0.05 94 1010.7
20260506130100 21 142 8.0 16.1 0.03 0.05 0.05 94 1010.6
20260506124553 21 182 1.6 6.4 0.00 0.03 0.03 94 1010.5
20260506123045 21 162 3.2 11.3 0.00 0.03 0.03 94 1010.3
20260506121545 21 169 6.4 11.3 0.00 0.03 0.03 94 1010.2
20260506120046 21 157 8.0 17.7 0.03 0.03 0.03 93 1010.2
20260506114545 21 148 8.0 12.9 0.03 0.03 0.03 94 1010.2
20260506113052 21 156 4.8 11.3 0.03 0.03 0.03 93 1010.2
20260506111545 21 173 4.8 11.3 0.03 0.03 0.03 93 1010.4
20260506110056 21 0 4.8 12.9 0.00 0.00 0.00 93 1010.6
20260506104551 21 156 1.6 6.4 0.00 0.00 0.00 93 1010.6
20260506103050 21 156 3.2 11.3 0.00 0.00 0.00 93 1010.6
20260506101556 21 161 6.4 11.3 0.00 0.00 0.00 93 1010.3
20260506100104 21 169 4.8 14.5 0.00 0.00 0.00 93 1010.3
20260506094543 22 176 6.4 14.5 0.00 0.00 0.00 93 1010.2
20260506093048 22 138 8.0 17.7 0.00 0.00 0.00 92 1010.2
20260506091545 22 156 8.0 19.3 0.00 0.00 0.00 92 1010.2
20260506090045 22 152 11.3 19.3 0.00 0.00 0.00 92 1010.1
20260506084605 22 180 14.5 27.4 0.00 0.00 0.00 92 1009.9
20260506083043 22 155 12.9 24.1 0.00 0.00 0.00 91 1009.8
20260506081553 22 169 14.5 27.4 0.00 0.00 0.00 90 1009.8
20260506073047 22 169 8.0 17.7 0.00 0.00 0.00 90 1009.9
20260506071541 22 150 12.9 22.5 0.00 0.00 0.00 90 1010.1
20260506061545 23 141 11.3 17.7 0.00 0.00 0.00 88 1010.4
20260506044637 22 157 8.0 11.3 0.00 0.00 0.00 84 1010.4
20260506043047 22 153 3.2 6.4 0.00 0.00 0.00 83 1010.5
20260506041558 23 127 3.2 4.8 0.00 0.00 0.00 83 1010.5
20260506040049 23 99 3.2 6.4 0.00 0.00 0.00 83 1010.3
20260506034620 23 122 3.2 4.8 0.00 0.00 0.00 83 1010.1
20260506033051 23 144 3.2 4.8 0.00 0.00 0.00 82 1009.9
20260506031544 23 144 3.2 6.4 0.00 0.00 0.00 81 1009.9
20260506030045 23 128 3.2 6.4 0.00 0.00 0.00 80 1009.6
20260506024547 23 128 3.2 8.0 0.00 0.00 0.00 80 1009.6
20260506023102 23 181 1.6 6.4 0.00 0.00 0.00 79 1009.3
20260506021540 24 149 3.2 9.7 0.00 0.00 0.00 78 1008.9
20260506020047 25 167 3.2 11.3 0.00 0.00 0.00 77 1008.8
20260506014545 25 173 6.4 14.5 0.00 0.00 0.00 75 1008.5
20260506013044 25 143 6.4 12.9 0.00 0.00 0.00 74 1008.3
20260506011549 26 134 6.4 12.9 0.00 0.00 0.00 72 1008.0
20260506010054 26 150 8.0 17.7 0.00 0.00 0.00 69 1007.7
20260506004602 27 162 6.4 14.5 0.00 0.00 0.00 68 1007.8
20260506003101 27 156 9.7 20.9 0.00 0.00 0.00 66 1007.8
20260506001547 27 211 6.4 16.1 0.00 0.00 0.00 66 1007.9
20260506000047 27 135 3.2 16.1 0.00 0.00 0.00 66 1007.9
20260505234604 28 170 1.6 16.1 0.00 0.00 0.00 65 1008.0
20260505233051 28 215 6.4 19.3 0.00 0.00 0.00 63 1008.0
20260505231545 28 222 3.2 14.5 0.00 0.00 0.00 64 1007.7
20260505230050 28 181 8.0 19.3 0.00 0.00 0.00 64 1007.8
20260505224546 28 175 6.4 14.5 0.00 0.00 0.00 63 1007.7
20260505223044 29 221 3.2 16.1 0.00 0.00 0.00 60 1007.9
20260505221546 29 170 4.8 12.9 0.00 0.00 0.00 61 1007.8
20260505220058 29 175 3.2 12.9 0.00 0.00 0.00 59 1007.8
20260505214544 30 179 6.4 12.9 0.00 0.00 0.00 59 1008.0
20260505213039 30 144 4.8 11.3 0.00 0.00 0.00 58 1008.1
20260505211550 30 232 3.2 16.1 0.00 0.00 0.00 58 1008.3
20260505210046 30 218 4.8 12.9 0.00 0.00 0.00 58 1008.7
20260505204547 30 228 4.8 14.5 0.00 0.00 0.00 57 1008.7
20260505203040 30 273 4.8 22.5 0.00 0.00 0.00 58 1008.7
20260505201545 30 180 6.4 22.5 0.00 0.00 0.00 59 1008.8
20260505200048 29 34 8.0 19.3 0.00 0.00 0.00 59 1009.0
20260505194546 29 186 4.8 14.5 0.00 0.00 0.00 59 1009.1
20260505193049 29 320 6.4 17.7 0.00 0.00 0.00 60 1009.2
20260505191554 28 174 4.8 24.1 0.00 0.00 0.00 60 1009.4
20260505190051 28 209 6.4 19.3 0.00 0.00 0.00 61 1009.7
20260505184538 28 219 3.2 20.9 0.00 0.00 0.00 62 1009.9
20260505183046 28 157 4.8 16.1 0.00 0.00 0.00 62 1010.2
20260505181542 28 171 3.2 12.9 0.00 0.00 0.00 62 1010.4
20260505180053 27 223 4.8 12.9 0.00 0.00 0.00 65 1010.4
20260505174605 27 167 1.6 11.3 0.00 0.00 0.00 67 1010.7
20260505173045 26 232 3.2 14.5 0.00 0.00 0.00 67 1010.9
20260505171543 26 218 4.8 12.9 0.00 0.00 0.00 70 1010.9
20260505170108 25 229 4.8 14.5 0.00 0.00 0.00 73 1011.0
20260505164548 23 219 4.8 14.5 0.00 0.00 0.00 77 1010.9
20260505163046 23 212 1.6 11.3 0.00 0.00 0.00 78 1010.8
20260505161543 22 196 6.4 14.5 0.00 0.00 0.00 79 1010.8